• In Hungary
  • List of Countries
  • For 7 days
  • Water Temperature
  • Satellite Maps
  • Weather Map
  • News
  • Weather Widgets
  • user-avatar
    Login

    Hourly Weather Barylivka

    Today, 21 July, Saturday

    Time Temperature Precipitation Wind Pressure Humidity
    00:00 +20°C° 0 mm 1 mps 736 mmHg 88%
    01:00 +20°C° 0 mm 1 mps 736 mmHg 89%
    02:00 +18°C° 0 mm 0 mps 736 mmHg 91%
    03:00 +18°C° 0.3 mm 0 mps 736 mmHg 91%
    04:00 +18°C° 0.3 mm 0 mps 736 mmHg 92%
    05:00 +18°C° 0.3 mm 0 mps 736 mmHg 92%
    06:00 +19°C° 0.1 mm 0 mps 736 mmHg 88%
    07:00 +23°C° 0.1 mm 1 mps 736 mmHg 83%
    08:00 +24°C° 0 mm 1 mps 736 mmHg 79%
    09:00 +25°C° 0.6 mm 1 mps 736 mmHg 74%
    10:00 +26°C° 0.6 mm 1 mps 736 mmHg 70%
    11:00 +27°C° 0.6 mm 2 mps 736 mmHg 66%
    12:00 +27°C° 0.1 mm 2 mps 736 mmHg 64%
    13:00 +28°C° 0.1 mm 2 mps 736 mmHg 62%
    14:00 +28°C° 0.1 mm 2 mps 736 mmHg 59%
    15:00 +28°C° 0.1 mm 2 mps 736 mmHg 62%
    16:00 +28°C° 0.1 mm 2 mps 736 mmHg 64%
    17:00 +28°C° 0.1 mm 2 mps 736 mmHg 66%
    18:00 +26°C° 0.1 mm 2 mps 736 mmHg 72%
    19:00 +25°C° 0.1 mm 2 mps 736 mmHg 78%
    20:00 +23°C° 0.1 mm 2 mps 736 mmHg 83%
    21:00 +21°C° 0.3 mm 2 mps 736 mmHg 86%
    22:00 +20°C° 0.3 mm 2 mps 736 mmHg 89%
    23:00 +20°C° 0.3 mm 2 mps 736 mmHg 92%

    Tomorrow, 22 July, Sunday

    Time Temperature Precipitation Wind Pressure Humidity
    00:00 +19°C° 0.7 mm 2 mps 736 mmHg 93%
    01:00 +19°C° 0.7 mm 2 mps 736 mmHg 94%
    02:00 +19°C° 0.7 mm 2 mps 736 mmHg 95%
    03:00 +18°C° 0.1 mm 2 mps 736 mmHg 96%
    04:00 +18°C° 0.1 mm 2 mps 736 mmHg 96%
    05:00 +19°C° 0.1 mm 1 mps 735 mmHg 96%
    06:00 +21°C° 0 mm 1 mps 736 mmHg 93%
    07:00 +22°C° 0 mm 1 mps 736 mmHg 89%
    08:00 +23°C° 0 mm 1 mps 736 mmHg 85%
    09:00 +24°C° 0.5 mm 2 mps 736 mmHg 82%
    10:00 +24°C° 0.5 mm 2 mps 736 mmHg 79%
    11:00 +25°C° 0.5 mm 3 mps 736 mmHg 76%
    12:00 +26°C° 0.3 mm 3 mps 735 mmHg 74%
    13:00 +26°C° 0.3 mm 3 mps 735 mmHg 73%
    14:00 +26°C° 0.3 mm 2 mps 735 mmHg 71%
    15:00 +26°C° 0.5 mm 2 mps 735 mmHg 72%
    16:00 +26°C° 0.5 mm 2 mps 735 mmHg 74%
    17:00 +26°C° 0.5 mm 1 mps 735 mmHg 75%
    18:00 +25°C° 0.3 mm 1 mps 735 mmHg 80%
    19:00 +23°C° 0.3 mm 1 mps 735 mmHg 84%
    20:00 +22°C° 0.3 mm 1 mps 735 mmHg 89%
    21:00 +22°C° 0 mm 1 mps 735 mmHg 91%
    22:00 +21°C° 0 mm 1 mps 735 mmHg 92%
    23:00 +21°C° 0 mm 1 mps 735 mmHg 94%

    Day after tomorrow, 23 July, Monday

    Time Temperature Precipitation Wind Pressure Humidity
    00:00 +20°C° 0.2 mm 1 mps 735 mmHg 94%
    01:00 +20°C° 0.2 mm 1 mps 735 mmHg 95%
    02:00 +20°C° 0.2 mm 1 mps 735 mmHg 96%
    03:00 +20°C° 0.1 mm 1 mps 735 mmHg 96%
    04:00 +20°C° 0.1 mm 1 mps 735 mmHg 97%
    05:00 +20°C° 0.1 mm 1 mps 735 mmHg 97%
    06:00 +21°C° 0 mm 1 mps 735 mmHg 94%
    07:00 +21°C° 0 mm 2 mps 735 mmHg 91%
    08:00 +23°C° 0 mm 2 mps 736 mmHg 88%
    09:00 +24°C° 0.1 mm 2 mps 736 mmHg 83%
    10:00 +25°C° 0.1 mm 2 mps 736 mmHg 79%
    11:00 +26°C° 0.1 mm 2 mps 736 mmHg 74%
    12:00 +26°C° 0.5 mm 2 mps 736 mmHg 73%
    13:00 +27°C° 0.5 mm 2 mps 736 mmHg 71%
    14:00 +27°C° 0.5 mm 2 mps 736 mmHg 70%
    15:00 +27°C° 1 mm 2 mps 736 mmHg 72%
    16:00 +26°C° 1 mm 1 mps 736 mmHg 75%
    17:00 +26°C° 1 mm 1 mps 736 mmHg 77%
    18:00 +25°C° 0.3 mm 1 mps 736 mmHg 81%
    19:00 +24°C° 0.3 mm 1 mps 736 mmHg 84%
    20:00 +22°C° 0.3 mm 1 mps 736 mmHg 88%
    21:00 +22°C° 0 mm 1 mps 736 mmHg 89%
    22:00 +22°C° 0 mm 1 mps 736 mmHg 90%
    23:00 +21°C° 0 mm 1 mps 736 mmHg 91%

    24 July, Tuesday

    Time Temperature Precipitation Wind Pressure Humidity
    00:00 +21°C° 0 mm 1 mps 737 mmHg 91%
    01:00 +21°C° 0 mm 1 mps 737 mmHg 91%
    02:00 +20°C° 0 mm 2 mps 737 mmHg 91%
    03:00 +20°C° 0 mm 2 mps 737 mmHg 91%
    04:00 +20°C° 0 mm 2 mps 737 mmHg 91%
    05:00 +20°C° 0 mm 2 mps 737 mmHg 91%
    06:00 +21°C° 0.2 mm 2 mps 738 mmHg 87%
    07:00 +24°C° 0.2 mm 2 mps 738 mmHg 82%
    08:00 +25°C° 0.2 mm 2 mps 738 mmHg 78%
    09:00 +26°C° 0.4 mm 3 mps 738 mmHg 72%
    10:00 +28°C° 0.4 mm 3 mps 738 mmHg 66%
    11:00 +29°C° 0.4 mm 3 mps 738 mmHg 59%
    12:00 +28°C° 0.6 mm 3 mps 738 mmHg 62%
    13:00 +28°C° 0.6 mm 3 mps 739 mmHg 64%
    14:00 +28°C° 0.6 mm 3 mps 739 mmHg 66%
    15:00 +27°C° 0.5 mm 3 mps 739 mmHg 70%
    16:00 +26°C° 0.5 mm 3 mps 739 mmHg 74%
    17:00 +26°C° 0.5 mm 3 mps 739 mmHg 79%
    18:00 +24°C° 0.1 mm 3 mps 739 mmHg 83%
    19:00 +22°C° 0.1 mm 3 mps 739 mmHg 87%
    20:00 +21°C° 0.1 mm 3 mps 739 mmHg 90%
    21:00 +20°C° 0 mm 3 mps 739 mmHg 92%
    22:00 +20°C° 0 mm 3 mps 739 mmHg 93%
    23:00 +19°C° 0 mm 3 mps 739 mmHg 94%

    25 July, Wednesday

    Time Temperature Precipitation Wind Pressure Humidity
    00:00 +19°C° 0.1 mm 3 mps 739 mmHg 94%
    01:00 +19°C° 0.1 mm 3 mps 739 mmHg 94%
    02:00 +18°C° 0.1 mm 3 mps 739 mmHg 94%
    03:00 +18°C° 0 mm 3 mps 739 mmHg 94%
    04:00 +19°C° 0 mm 3 mps 740 mmHg 94%
    05:00 +19°C° 0 mm 3 mps 740 mmHg 94%
    06:00 +20°C° 0.1 mm 3 mps 740 mmHg 90%
    07:00 +22°C° 0.1 mm 4 mps 740 mmHg 87%
    08:00 +23°C° 0.1 mm 4 mps 741 mmHg 83%
    09:00 +26°C° 0.6 mm 4 mps 741 mmHg 77%
    10:00 +27°C° 0.6 mm 5 mps 741 mmHg 71%
    11:00 +28°C° 0.6 mm 5 mps 741 mmHg 64%
    12:00 +28°C° 0.7 mm 5 mps 741 mmHg 66%
    13:00 +28°C° 0.7 mm 5 mps 741 mmHg 67%
    14:00 +29°C° 0.7 mm 5 mps 741 mmHg 68%
    15:00 +28°C° 0.4 mm 4 mps 741 mmHg 71%
    16:00 +28°C° 0.4 mm 4 mps 741 mmHg 74%
    17:00 +27°C° 0.4 mm 4 mps 741 mmHg 77%
    18:00 +26°C° 0.5 mm 4 mps 741 mmHg 81%
    19:00 +23°C° 0.5 mm 4 mps 742 mmHg 85%
    20:00 +22°C° 0.5 mm 3 mps 742 mmHg 89%
    21:00 +21°C° 0.3 mm 4 mps 742 mmHg 90%
    22:00 +21°C° 0.3 mm 4 mps 742 mmHg 91%
    23:00 +21°C° 0.3 mm 4 mps 742 mmHg 92%

    26 July, Thursday

    Time Temperature Precipitation Wind Pressure Humidity
    00:00 +20°C° 0.3 mm 4 mps 742 mmHg 92%
    01:00 +20°C° 0.3 mm 4 mps 742 mmHg 92%
    02:00 +19°C° 0.3 mm 3 mps 742 mmHg 92%
    03:00 +19°C° 0 mm 3 mps 742 mmHg 91%
    04:00 +18°C° 0 mm 3 mps 742 mmHg 91%
    05:00 +18°C° 0 mm 3 mps 742 mmHg 91%
    06:00 +19°C° 0.2 mm 4 mps 743 mmHg 87%
    07:00 +20°C° 0.2 mm 4 mps 743 mmHg 84%
    08:00 +21°C° 0.2 mm 4 mps 743 mmHg 80%
    09:00 +23°C° 0.1 mm 4 mps 743 mmHg 77%
    10:00 +25°C° 0.1 mm 5 mps 743 mmHg 73%
    11:00 +26°C° 0.1 mm 5 mps 743 mmHg 69%
    12:00 +27°C° 0 mm 5 mps 743 mmHg 67%
    13:00 +28°C° 0 mm 5 mps 743 mmHg 64%
    14:00 +29°C° 0 mm 5 mps 743 mmHg 62%
    15:00 +29°C° 0 mm 5 mps 743 mmHg 65%
    16:00 +28°C° 0 mm 5 mps 743 mmHg 68%
    17:00 +28°C° 0 mm 4 mps 744 mmHg 71%
    18:00 +27°C° 0 mm 4 mps 744 mmHg 74%
    19:00 +26°C° 0 mm 4 mps 744 mmHg 78%
    20:00 +23°C° 0 mm 4 mps 744 mmHg 81%
    21:00 +23°C° 0 mm 4 mps 744 mmHg 81%
    22:00 +23°C° 0 mm 4 mps 744 mmHg 80%
    23:00 +23°C° 0 mm 4 mps 744 mmHg 80%
    Show more